Weather History for Bentonville, AR

Change the Weather History Date:

Wednesday, November 16, 2011

  Actual Average Record
Temperature  
Mean Temperature 45 °F -  
Max Temperature 57 °F 56 °F 78 °F (1964)
Min Temperature 33 °F 34 °F 17 °F (1982)
Degree Days  
Heating Degree Days 20    
Moisture  
Dew Point 30 °F    
Average Humidity 59    
Maximum Humidity 88    
Minimum Humidity 29    
Precipitation  
Precipitation 0.00 in - - ()
Sea Level Pressure  
Sea Level Pressure 30.07 in    
Wind  
Wind Speed 11 mph (NNE)    
Max Wind Speed 18 mph    
Max Gust Speed 25 mph    
Visibility 10 miles    
Events      
Averages and records for this station are not official NWS values.
T = Trace of Precipitation, MM = Missing Value Source: NWS Daily Summary

Daily Weather History Graph

Daily Weather History Graph

Search for Another Location

Airport:

Trip Planner

Search our weather history database for the weather conditions in past years. The results will help you decide how hot, cold, wet, or windy it might be!

Date:

Astronomy

Nov. 16, 2011 Rise Set
Actual Time 6:54 AM CST 5:08 PM CST
Civil Twilight 6:27 AM CST 5:35 PM CST
Nautical Twilight 5:56 AM CST 6:06 PM CST
Astronomical Twilight 5:25 AM CST 6:37 PM CST
Moon 10:21 PM CST (11/16) 11:32 AM CST (11/16)
Length of Visible Light 11h 08m
Length of Day
10h 13m
Waning Gibbous, 70% of the Moon is Illuminated
Nov 16
Waning Gibbous
Nov 18
Last Quarter
Nov 25
New
Dec 2
First Quarter
Dec 10
Full

Hourly Weather History & Observations

Time (CST) Temp. Windchill Dew Point Humidity Pressure Visibility Wind Dir Wind Speed Gust Speed Precip Events Conditions
12:15 AM 57.2 °F - 53.6 °F 88% 29.84 in 10.0 mi North 10.4 mph 17.3 mph N/A   Mostly Cloudy
12:35 AM 55.4 °F - 50.0 °F 82% 29.85 in 10.0 mi NNE 10.4 mph - N/A   Scattered Clouds
12:55 AM 53.6 °F - 48.2 °F 82% 29.85 in 10.0 mi North 9.2 mph - N/A   Clear
1:15 AM 53.6 °F - 46.4 °F 77% 29.85 in 10.0 mi NNE 11.5 mph - N/A   Clear
1:35 AM 51.8 °F - 42.8 °F 71% 29.85 in 10.0 mi NNE 11.5 mph 17.3 mph N/A   Clear
1:55 AM 50.0 °F - 41.0 °F 71% 29.85 in 10.0 mi NNE 11.5 mph - N/A   Clear
2:15 AM 48.2 °F - 39.2 °F 71% 29.86 in 10.0 mi NNE 10.4 mph - N/A   Clear
2:35 AM 48.2 °F - 37.4 °F 66% 29.86 in 10.0 mi NNE 10.4 mph 17.3 mph N/A   Clear
2:55 AM 48.2 °F - 37.4 °F 66% 29.87 in 10.0 mi NE 11.5 mph 17.3 mph N/A   Clear
3:15 AM 46.4 °F 40.7 °F 37.4 °F 71% 29.87 in 10.0 mi NNE 12.7 mph - N/A   Clear
3:35 AM 46.4 °F 41.5 °F 35.6 °F 66% 29.88 in 10.0 mi NE 10.4 mph - N/A   Clear
3:55 AM 46.4 °F 41.5 °F 35.6 °F 66% 29.88 in 10.0 mi NE 10.4 mph 17.3 mph N/A   Clear
4:15 AM 46.4 °F 40.7 °F 33.8 °F 62% 29.88 in 10.0 mi NE 12.7 mph 20.7 mph N/A   Clear
4:35 AM 44.6 °F 38.8 °F 33.8 °F 66% 29.89 in 10.0 mi NNE 11.5 mph - N/A   Clear
4:55 AM 44.6 °F 38.4 °F 33.8 °F 66% 29.90 in 10.0 mi NE 12.7 mph 19.6 mph N/A   Clear
5:15 AM 44.6 °F 38.8 °F 32.0 °F 61% 29.90 in 10.0 mi NE 11.5 mph - N/A   Clear
5:35 AM 44.6 °F 39.2 °F 32.0 °F 61% 29.91 in 10.0 mi NNE 10.4 mph - N/A   Clear
6:15 AM 42.8 °F 37.0 °F 30.2 °F 61% 29.94 in 10.0 mi NE 10.4 mph - N/A   Clear
6:35 AM 42.8 °F 37.0 °F 30.2 °F 61% 29.95 in 10.0 mi NE 10.4 mph - N/A   Clear
6:55 AM 42.8 °F 37.5 °F 30.2 °F 61% 29.96 in 10.0 mi NNE 9.2 mph - N/A   Clear
7:15 AM 42.8 °F 37.5 °F 30.2 °F 61% 29.97 in 10.0 mi NNE 9.2 mph - N/A   Clear
7:35 AM 42.8 °F 37.5 °F 30.2 °F 61% 29.99 in 10.0 mi NNE 9.2 mph - N/A   Clear
7:55 AM 42.8 °F 36.6 °F 30.2 °F 61% 30.00 in 10.0 mi NNE 11.5 mph - N/A   Clear
8:15 AM 44.6 °F 38.1 °F 30.2 °F 57% 30.01 in 10.0 mi NNE 13.8 mph 20.7 mph N/A   Clear
8:35 AM 44.6 °F 37.8 °F 28.4 °F 53% 30.02 in 10.0 mi NNE 15.0 mph 23.0 mph N/A   Clear
8:55 AM 44.6 °F 36.9 °F 28.4 °F 53% 30.03 in 10.0 mi NE 18.4 mph 24.2 mph N/A   Clear
9:15 AM 44.6 °F 37.8 °F 28.4 °F 53% 30.04 in 10.0 mi NE 15.0 mph 24.2 mph N/A   Clear
9:35 AM 44.6 °F 37.4 °F 28.4 °F 53% 30.04 in 10.0 mi NE 16.1 mph 23.0 mph N/A   Clear
10:15 AM 46.4 °F 40.7 °F 24.8 °F 43% 30.06 in 10.0 mi NE 12.7 mph 21.9 mph N/A   Mostly Cloudy
10:35 AM 46.4 °F 41.1 °F 26.6 °F 46% 30.07 in 10.0 mi NNE 11.5 mph 20.7 mph N/A   Overcast
10:55 AM 48.2 °F - 24.8 °F 40% 30.08 in 10.0 mi NNE 13.8 mph 23.0 mph N/A   Overcast
11:15 AM 48.2 °F - 24.8 °F 40% 30.08 in 10.0 mi NNE 13.8 mph 20.7 mph N/A   Overcast
11:35 AM 48.2 °F - 24.8 °F 40% 30.09 in 10.0 mi NNE 17.3 mph 21.9 mph N/A   Overcast
11:55 AM 48.2 °F - 23.0 °F 37% 30.09 in 10.0 mi NNE 13.8 mph 23.0 mph N/A   Overcast
12:15 PM 50.0 °F - 24.8 °F 37% 30.09 in 10.0 mi NNE 13.8 mph 17.3 mph N/A   Mostly Cloudy
12:35 PM 50.0 °F - 23.0 °F 35% 30.08 in 10.0 mi NNE 17.3 mph 23.0 mph N/A   Mostly Cloudy
1:15 PM 50.0 °F - 21.2 °F 32% 30.09 in 10.0 mi NNE 9.2 mph 20.7 mph N/A   Mostly Cloudy
1:35 PM 48.2 °F - 23.0 °F 37% 30.10 in 10.0 mi North 13.8 mph 20.7 mph N/A   Mostly Cloudy
2:15 PM 48.2 °F - 21.2 °F 34% 30.10 in 10.0 mi North 18.4 mph 25.3 mph N/A   Scattered Clouds
2:35 PM 48.2 °F - 21.2 °F 34% 30.11 in 10.0 mi NNE 11.5 mph 21.9 mph N/A   Partly Cloudy
2:55 PM 46.4 °F 40.1 °F 21.2 °F 37% 30.12 in 10.0 mi NNE 15.0 mph 23.0 mph N/A   Scattered Clouds
3:15 PM 46.4 °F 40.4 °F 19.4 °F 34% 30.13 in 10.0 mi North 13.8 mph - N/A   Mostly Cloudy
3:35 PM 44.6 °F 37.8 °F 17.6 °F 34% 30.15 in 10.0 mi NNE 15.0 mph 21.9 mph N/A   Overcast
3:55 PM 44.6 °F 38.8 °F 17.6 °F 34% 30.17 in 10.0 mi North 11.5 mph 19.6 mph N/A   Overcast
4:15 PM 44.6 °F 37.2 °F 19.4 °F 37% 30.18 in 10.0 mi North 17.3 mph 23.0 mph N/A   Overcast
4:35 PM 44.6 °F 37.2 °F 14.0 °F 29% 30.19 in 10.0 mi NNE 17.3 mph 24.2 mph N/A   Overcast
5:15 PM 42.8 °F 36.2 °F 17.6 °F 36% 30.21 in 10.0 mi NNE 12.7 mph 23.0 mph N/A   Overcast
5:35 PM 41.0 °F 33.5 °F 19.4 °F 42% 30.23 in 10.0 mi North 13.8 mph 20.7 mph N/A   Overcast
5:55 PM 39.2 °F 31.2 °F 23.0 °F 52% 30.24 in 10.0 mi North 13.8 mph 18.4 mph N/A   Overcast
6:35 PM 39.2 °F 32.0 °F 28.4 °F 65% 30.25 in 10.0 mi NNE 11.5 mph - N/A   Overcast
6:55 PM 37.4 °F 29.8 °F 30.2 °F 75% 30.25 in 10.0 mi NNE 11.5 mph 18.4 mph N/A   Mostly Cloudy
7:35 PM 37.4 °F 29.8 °F 32.0 °F 81% 30.26 in 10.0 mi NE 11.5 mph - N/A   Overcast
7:55 PM 37.4 °F 29.8 °F 32.0 °F 81% 30.26 in 10.0 mi NNE 11.5 mph - N/A   Overcast
8:15 PM 37.4 °F 31.4 °F 32.0 °F 81% 30.26 in 10.0 mi NNE 8.1 mph - N/A   Overcast
8:55 PM 37.4 °F 31.4 °F 30.2 °F 75% 30.28 in 10.0 mi North 8.1 mph - N/A   Partly Cloudy
9:15 PM 35.6 °F 30.7 °F 28.4 °F 75% 30.29 in 10.0 mi North 5.8 mph - N/A   Clear
9:35 PM 35.6 °F 30.7 °F 28.4 °F 75% 30.30 in 10.0 mi NNW 5.8 mph - N/A   Clear
9:55 PM 35.6 °F 32.8 °F 28.4 °F 75% 30.31 in 10.0 mi NNW 3.5 mph - N/A   Clear
10:15 PM 33.8 °F 30.8 °F 30.2 °F 87% 30.31 in 10.0 mi NW 3.5 mph - N/A   Clear
10:35 PM 33.8 °F 30.8 °F 28.4 °F 81% 30.32 in 10.0 mi WNW 3.5 mph - N/A   Clear
10:55 PM 33.8 °F 27.0 °F 30.2 °F 87% 30.33 in 10.0 mi NW 8.1 mph - N/A   Clear
11:35 PM 33.8 °F 25.8 °F 28.4 °F 81% 30.34 in 10.0 mi NW 10.4 mph - N/A   Mostly Cloudy
11:55 PM 33.8 °F 27.0 °F 28.4 °F 81% 30.35 in 10.0 mi NW 8.1 mph - N/A   Mostly Cloudy